Location: McFarlands Corners
(41.4117°N, 81.3382°W)
Time: 18:57:20
(UTC+00:00)

Tiros 1 - Pass Details

Date: 16 February 2026
Orbit: 618 x 649 km, 48.4° (Epoch: 10 March)

Event Time Altitude Azimuth Distance (km) Brightness Sun altitude
Rises 17:33:03 0° 287° (WNW) 2,897 10.3 36.4°
Reaches altitude 10° 17:35:33 10° 297° (WNW) 1,987 9.5 36.4°
Maximum altitude 17:39:42 34° 2° (N) 1,032 8.1 36.4°
Drops below altitude 10° 17:43:51 10° 68° (ENE) 1,980 9.5 36.4°
Sets 17:46:20 0° 78° (ENE) 2,885 10.4 36.4°
